EW9733 Weather Reports


Display with metric or nautical units.
time (UTC)temp
F
wind
direction
speed
MPH
gust
MPH
rain 1hr
in
rain 24hr
in
rain mn
in
humidity
%
barometer
mb
20260901033102 66 141 0.0 2.0 0.00 0.09 0.01 84 1017.0
20260901031550 66 144 0.0 4.0 0.00 0.09 0.01 84 1017.1
20260901030049 66 161 0.0 4.0 0.00 0.09 0.01 84 1017.1
20260901024554 66 130 0.0 4.0 0.00 0.09 0.01 83 1017.0
20260901023047 66 161 0.0 1.0 0.00 0.09 0.01 83 1017.1
20260901021547 67 51 0.0 2.0 0.00 0.09 0.01 83 1017.2
20260901020047 67 155 0.0 5.0 0.00 0.09 0.01 84 1017.2
20260901014546 67 140 0.0 3.0 0.00 0.09 0.01 84 1017.3
20260901013046 67 151 0.0 5.0 0.00 0.09 0.01 84 1017.3
20260901011554 67 163 0.0 3.0 0.00 0.09 0.01 83 1017.2
20260901010046 68 135 1.0 4.0 0.00 0.09 0.01 82 1017.2
20260901004544 68 149 0.0 5.0 0.00 0.09 0.01 81 1017.2
20260901003053 68 146 0.0 4.0 0.00 0.09 0.01 80 1017.1
20260901001544 68 122 0.0 3.0 0.00 0.09 0.01 79 1017.1
20260901000044 68 160 1.0 7.0 0.00 0.09 0.01 77 1017.1
20260831234542 68 167 0.0 7.0 0.00 0.09 0.01 75 1017.1
20260831233041 68 165 0.0 4.0 0.00 0.09 0.01 75 1017.2
20260831231541 69 178 0.0 6.0 0.00 0.09 0.01 74 1017.2
20260831230041 69 173 2.0 6.0 0.00 0.09 0.01 73 1017.2
20260831224540 70 171 0.0 4.0 0.00 0.09 0.01 72 1017.2
20260831223042 70 90 0.0 7.0 0.00 0.09 0.01 71 1017.3
20260831221542 70 156 0.0 5.0 0.00 0.09 0.01 71 1017.3
20260831220038 70 162 2.0 5.0 0.00 0.09 0.01 70 1017.3
20260831214543 71 173 1.0 4.0 0.00 0.09 0.01 70 1017.5
20260831213043 71 185 1.0 5.0 0.00 0.09 0.01 70 1017.4
20260831211537 72 159 2.0 7.0 0.00 0.09 0.01 68 1017.4
20260831210038 72 165 0.0 5.0 0.00 0.09 0.01 68 1017.5
20260831204549 73 157 0.0 5.0 0.00 0.09 0.01 65 1017.6
20260831203054 74 165 2.0 4.0 0.00 0.09 0.01 64 1017.5
20260831201535 73 182 1.0 5.0 0.00 0.09 0.01 65 1017.5
20260831200040 72 170 2.0 6.0 0.00 0.09 0.01 66 1017.5
20260831194541 72 171 1.0 6.0 0.00 0.09 0.01 66 1017.6
20260831193035 72 319 0.0 8.0 0.00 0.09 0.01 65 1017.9
20260831191535 72 138 1.0 6.0 0.00 0.09 0.01 63 1017.7
20260831190050 73 176 1.0 5.0 0.00 0.09 0.01 63 1018.0
20260831184533 74 173 3.0 7.0 0.00 0.09 0.01 63 1018.3
20260831183034 74 89 0.0 4.0 0.00 0.09 0.01 60 1018.2
20260831181539 74 167 2.0 5.0 0.00 0.09 0.01 61 1018.2
20260831180034 75 96 0.0 6.0 0.00 0.09 0.01 58 1018.2
20260831174529 74 167 1.0 5.0 0.00 0.09 0.01 60 1018.5
20260831173028 73 186 2.0 6.0 0.00 0.09 0.01 61 1018.5
20260831171530 74 83 0.0 5.0 0.00 0.09 0.01 62 1018.6
20260831170035 74 86 1.0 6.0 0.00 0.09 0.01 60 1018.8
20260831164528 75 240 0.0 2.0 0.00 0.09 0.01 60 1018.8
20260831163026 73 302 1.0 5.0 0.00 0.09 0.01 60 1019.1
20260831161523 74 34 1.0 10.0 0.00 0.09 0.01 62 1019.2
20260831160038 73 106 0.0 6.0 0.00 0.09 0.01 60 1019.3
20260831154521 73 52 0.0 7.0 0.00 0.09 0.01 59 1019.4
20260831153043 73 34 1.0 8.0 0.00 0.09 0.01 59 1019.5
20260831151519 72 32 1.0 6.0 0.00 0.09 0.01 61 1019.5
20260831150016 72 71 1.0 5.0 0.00 0.09 0.01 60 1019.4
20260831144511 72 52 1.0 5.0 0.00 0.09 0.01 62 1019.4
20260831143007 71 45 0.0 5.0 0.00 0.09 0.01 66 1019.4
20260831141509 71 40 0.0 4.0 0.00 0.09 0.01 68 1019.3
20260831140059 70 84 1.0 3.0 0.00 0.09 0.01 70 1019.3
20260831134604 69 93 0.0 6.0 0.00 0.09 0.01 71 1019.4
20260831133051 68 124 0.0 3.0 0.00 0.09 0.01 78 1019.3
20260831131551 66 38 1.0 4.0 0.00 0.09 0.01 85 1019.2
20260831130050 65 53 0.0 3.0 0.00 0.09 0.01 92 1019.2
20260831124538 64 48 1.0 2.0 0.00 0.09 0.01 93 1019.1
20260831123043 63 51 0.0 8.0 0.00 0.09 0.01 93 1019.1
20260831121537 62 83 0.0 4.0 0.00 0.09 0.01 94 1018.8
20260831120055 61 190 0.0 0.0 0.00 0.09 0.01 93 1018.9
20260831114532 61 193 0.0 1.0 0.00 0.09 0.01 93 1018.8
20260831113026 60 193 0.0 1.0 0.00 0.09 0.01 93 1018.6
20260831111525 60 193 0.0 0.0 0.01 0.09 0.01 92 1018.7
20260831110022 60 193 0.0 0.0 0.01 0.09 0.01 92 1018.4
20260831104531 60 193 0.0 0.0 0.01 0.09 0.01 92 1018.3
20260831103016 60 193 0.0 0.0 0.01 0.09 0.01 91 1018.2
20260831101536 60 193 0.0 0.0 0.00 0.08 0.00 91 1017.8
20260831100037 61 193 0.0 0.0 0.00 0.08 0.00 91 1017.7
20260831094530 61 193 0.0 0.0 0.00 0.08 0.00 91 1017.6
20260831093029 61 193 0.0 0.0 0.00 0.08 0.00 91 1017.5
20260831091528 62 193 0.0 0.0 0.00 0.08 0.00 91 1017.5
20260831090027 62 193 0.0 0.0 0.00 0.08 0.00 90 1017.4
20260831084527 62 193 0.0 0.0 0.00 0.08 0.00 90 1017.3
20260831083025 63 193 0.0 0.0 0.00 0.08 0.00 90 1017.1
20260831081533 63 193 0.0 0.0 0.00 0.08 0.00 90 1017.0
20260831080016 63 193 0.0 0.0 0.00 0.08 0.00 90 1016.8
20260831074517 64 193 0.0 0.0 0.00 0.08 0.00 90 1016.6
20260831073011 64 193 0.0 1.0 0.00 0.08 0.00 90 1016.3
20260831071510 65 194 0.0 0.0 0.00 0.08 0.00 90 1016.3
20260831070012 65 194 0.0 0.0 0.00 0.08 0.00 90 1016.2
20260831064505 66 194 0.0 0.0 0.00 0.08 0.00 90 1016.2
20260831063004 66 194 0.0 0.0 0.00 0.08 0.00 90 1016.2
20260831061502 67 194 0.0 0.0 0.00 0.08 0.00 90 1016.2
20260831060109 67 194 0.0 0.0 0.00 0.08 0.00 90 1016.1
20260831054559 67 194 0.0 0.0 0.00 0.08 0.00 89 1016.0
20260831053054 68 194 0.0 0.0 0.00 0.08 0.00 89 1015.7
20260831051616 68 194 0.0 0.0 0.00 0.08 0.00 89 1015.6
20260831050051 69 194 0.0 0.0 0.00 0.08 0.00 89 1015.5
20260831044549 69 194 0.0 0.0 0.00 0.08 0.00 89 1015.5
20260831043048 70 194 0.0 0.0 0.02 0.08 0.00 88 1015.6
20260831041549 70 194 0.0 0.0 0.04 0.08 0.00 88 1015.6
20260831040049 70 194 0.0 0.0 0.08 0.08 0.00 87 1015.5
20260831034542 71 194 0.0 1.0 0.08 0.08 0.08 87 1015.6